Temp
59 54 51 53 55 53 51 48 48 53 60 54 53 54 58 63 64 62 64 66 67 68 73 76 74 76 77 76 76 76 76 76 77 77 76 77 76 78 77 78 80 80 81 81
55 51 57 57 55 53 51 48 49 55 58 56 54 54 59 61 62 63 63 64 66 68 70 73 73 74 75 74 75 75 76 76 76 77 77 78 78 78 79 80 80 80 80 80
50 55 56 54 52 49 51 47 49 49 54 57 53 51 56 63 64 64 66 66 67 66 67 70 72 72 74 73 74 75 75 75 76 77 76 74 76 75 77 77 79 80 80 80
52 55 53 52 49 51 46 55 52 50 47 40 54 34 49 57 58 62 64 65 66 66 68 71 73 72 73 74 75 75 75 74 75 75 74 71 73 75 78 78 80 80 79 78
52 52 50 48 52 53 50 55 51 50 44 40 44 37 50 58 55 58 62 64 66 68 68 70 74 74 76 76 73 73 70 72 73 74 73 73 74 77 79 79 75 77 75 76
53 59 53 53 56 56 57 51 52 47 43 32 42 40 47 53 54 56 62 64 64 67 69 71 74 75 77 77 75 72 68 71 73 73 72 73 73 75 76 75 75 76 76 74
50 52 55 55 52 57 54 46 35 37 36 39 43 36 46 55 57 57 57 60 64 67 69 71 71 74 75 72 74 72 72 71 72 71 72 74 74 73 72 70 76 73 73 72
41 42 52 56 53 48 49 45 34 28 34 39 46 34 42 58 59 61 62 63 64 66 70 71 73 75 76 71 72 74 72 68 71 73 73 74 73 73 72 73 73 73 71 72
41 42 55 57 57 54 50 44 48 33 36 32 41 42 47 57 58 57 60 62 63 64 68 70 75 76 76 71 72 74 75 74 75 73 73 73 73 69 70 70 69 68 65 66
47 35 52 55 57 56 52 52 37 35 30 31 38 35 36 45 49 52 54 59 64 66 67 70 75 75 76 72 72 75 75 72 72 71 74 73 74 73 70 68 65 65 64 62
50 43 46 54 51 49 49 40 41 39 36 31 30 35 44 45 47 48 50 55 65 67 68 70 75 75 76 73 73 70 70 68 68 71 73 73 71 70 66 66 64 61 62 59
51 45 40 47 56 55 53 46 43 35 35 35 33 35 48 49 50 50 49 53 66 69 69 71 74 74 74 71 70 68 68 70 71 72 71 68 66 65 62 61 59 60 59 57
51 44 37 46 52 57 50 51 47 48 43 35 32 34 51 52 52 52 49 52 67 67 68 69 71 70 70 66 69 71 71 70 71 73 71 68 63 61 60 59 57 57 55 55
53 45 41 33 40 49 44 49 48 47 37 37 37 39 48 48 48 50 49 51 62 67 66 68 68 67 68 68 69 68 70 72 68 64 64 64 59 57 55 54 54 53 54 53
50 42 46 47 50 50 48 46 49 46 42 36 42 43 44 47 46 47 48 50 54 59 59 66 67 66 66 67 68 69 70 66 64 61 59 57 56 55 54 52 51 50 50 52
51 43 45 46 52 51 44 49 50 48 44 43 46 43 49 50 50 46 46 48 50 52 54 55 59 65 63 61 61 61 61 60 59 56 54 53 52 50 49 49 47 47 46 50
46 44 42 40 50 47 38 47 48 48 46 44 39 43 49 48 48 44 44 46 49 50 53 54 55 56 57 58 58 57 56 55 55 53 52 51 50 48 46 46 45 45 45 46
46 45 43 40 45 36 47 57 53 49 48 51 50 48 49 47 49 47 46 46 49 50 51 52 55 55 56 56 57 56 55 53 52 50 50 50 49 47 46 46 44 43 43 45
49 46 40 36 37 45 45 52 49 45 46 54 50 50 49 50 53 48 48 47 49 50 51 52 54 55 56 56 56 55 53 52 50 49 47 48 46 45 46 43 42 42 43 44
49 49 41 41 34 31 44 54 58 55 44 55 53 51 48 48 42 44 48 47 49 50 51 51 53 54 54 56 56 54 52 52 49 48 48 46 44 43 43 42 42 42 43 46
45 46 40 39 37 45 53 55 59 43 45 55 55 53 49 45 44 46 47 47 48 49 50 51 52 51 53 54 53 51 51 49 48 48 46 44 44 41 41 41 44 47 46 47
43 41 42 42 36 33 55 56 48 53 57 58 56 54 50 51 49 48 46 46 47 48 48 50 49 49 51 54 51 48 46 46 46 46 44 43 43 44 43 45 47 47 46 45
40 47 44 45 46 55 56 56 59 58 56 58 56 56 55 52 50 47 45 45 46 46 47 48 48 47 49 50 51 48 46 46 45 44 42 41 43 45 45 48 46 46 47 47
50 52 47 47 53 54 57 59 59 60 59 60 59 56 56 52 50 48 46 45 45 46 46 47 47 46 46 48 48 48 48 47 45 43 42 43 45 46 48 48 49 48 47 48
51 52 48 47 51 54 57 59 60 60 60 59 60 56 56 55 50 48 46 45 45 45 46 46 45 44 44 46 47 48 47 47 44 43 43 45 47 47 47 48 49 48 51 50
52 48 45 46 53 53 55 60 60 58 59 60 58 57 56 55 50 49 46 46 46 45 46 45 44 44 44 45 45 46 47 47 45 45 46 46 46 46 47 46 43 39 40 39
MSLP
1011.70 1011.68 1011.26 1011.41 1011.55 1011.40 1011.03 1010.50 1009.30 1008.25 1007.18 1006.67 1005.02 1004.38 1002.45 1002.86 1002.67 1002.20 1001.78 1001.68 1001.62 1001.77 1001.11 1001.06 1001.20 1001.42 1001.59 1001.83 1002.05 1002.44 1003.08 1003.95 1004.59 1005.19 1005.70 1006.61 1007.24 1008.25 1009.00 1009.55 1010.06 1010.74 1011.28 1011.70
1011.69 1011.09 1011.21 1011.52 1011.37 1011.05 1010.56 1009.90 1008.52 1007.51 1006.85 1006.40 1004.00 1002.74 1001.69 1001.47 1001.36 1001.10 1000.66 1000.56 1000.48 1000.40 1000.38 1000.20 1000.27 1000.82 1000.94 1001.35 1001.70 1002.03 1002.60 1003.29 1003.95 1004.52 1005.01 1005.52 1006.65 1007.83 1008.61 1009.23 1009.80 1010.25 1010.79 1011.28
1011.53 1011.02 1011.14 1011.21 1010.88 1010.43 1009.70 1009.23 1007.97 1007.24 1006.42 1005.92 1003.90 1001.63 1000.72 999.92 1000.16 999.99 999.66 999.56 999.84 1000.01 999.67 999.03 999.15 999.76 1000.12 1000.68 1001.24 1001.63 1002.23 1002.63 1003.29 1004.02 1004.82 1005.67 1006.60 1007.77 1008.40 1008.83 1009.28 1009.79 1010.26 1010.90
1011.38 1011.30 1011.16 1010.80 1010.53 1010.09 1008.74 1008.46 1008.06 1007.02 1006.60 1005.43 1004.86 1001.67 1000.71 999.90 999.43 999.30 998.85 998.59 998.43 998.64 998.98 998.50 998.08 998.62 999.13 999.66 1000.48 1001.07 1001.57 1002.13 1003.06 1003.87 1004.16 1004.36 1005.47 1006.42 1007.19 1008.03 1008.81 1009.60 1010.03 1010.88
1011.45 1011.22 1011.06 1010.60 1009.87 1009.92 1008.86 1008.40 1007.62 1006.99 1006.74 1006.50 1004.77 1004.10 1000.17 999.52 998.85 998.47 998.30 998.00 997.40 997.44 997.55 997.33 997.04 997.80 998.04 998.55 999.48 1000.47 1001.32 1002.07 1002.81 1003.26 1003.36 1003.78 1004.89 1005.86 1006.53 1007.77 1008.78 1009.60 1010.08 1010.71
1011.73 1011.46 1011.33 1010.41 1009.96 1009.61 1009.09 1008.35 1006.88 1006.78 1006.98 1006.40 1004.55 1004.19 1000.06 999.70 999.29 998.62 997.61 996.92 996.46 996.25 996.35 996.46 996.12 997.14 997.29 997.95 998.96 999.98 1000.96 1001.63 1002.37 1002.81 1003.02 1003.88 1004.52 1005.31 1006.31 1007.42 1008.48 1009.45 1010.15 1011.05
1011.72 1010.90 1010.56 1010.53 1009.78 1008.97 1009.10 1008.32 1007.51 1007.05 1006.66 1004.82 1004.85 1004.48 1001.50 1000.43 999.85 999.14 997.97 996.72 995.69 995.53 995.50 995.44 995.98 996.02 996.84 997.60 998.37 999.51 1000.34 1001.16 1002.29 1002.70 1002.77 1003.37 1004.00 1004.90 1006.06 1007.29 1008.09 1008.86 1010.17 1010.82
1012.66 1010.84 1010.65 1010.50 1010.40 1009.90 1009.60 1009.93 1009.93 1008.92 1006.89 1004.40 1004.47 1003.99 1002.30 1000.94 1000.07 998.97 997.75 996.50 995.55 995.28 994.88 994.86 995.19 995.34 996.04 997.00 997.84 998.67 999.84 1000.74 1001.18 1002.56 1001.19 1002.56 1003.86 1005.04 1006.16 1007.43 1007.99 1008.70 1009.78 1010.91
1013.45 1011.64 1010.71 1010.62 1010.12 1010.11 1009.62 1009.75 1010.17 1009.46 1007.78 1006.54 1004.52 1004.12 1002.85 1001.21 999.99 998.95 997.48 996.20 995.49 995.36 994.87 994.40 994.48 994.80 995.38 996.56 997.23 997.86 998.59 999.65 999.18 1000.78 1001.67 1002.74 1004.11 1004.82 1006.19 1007.25 1007.87 1008.88 1010.26 1011.28
1014.32 1013.05 1010.94 1010.18 1009.76 1009.79 1010.00 1010.33 1010.23 1010.13 1008.45 1006.05 1004.59 1004.34 1003.72 1002.06 1000.74 999.80 998.51 996.98 995.61 994.81 994.48 994.19 993.98 994.37 994.99 996.40 997.22 997.94 998.58 999.43 1000.01 1001.21 1002.16 1003.04 1003.98 1004.76 1005.66 1007.60 1008.33 1008.76 1010.12 1011.38
1014.43 1014.01 1011.42 1010.08 1009.44 1009.31 1009.51 1010.35 1010.46 1010.37 1009.20 1007.86 1005.93 1005.04 1004.44 1003.44 1002.30 1000.84 999.52 997.90 995.86 994.93 994.54 994.19 994.08 994.38 995.06 996.17 997.25 998.26 999.07 1000.06 1000.93 1001.66 1002.32 1003.24 1004.60 1005.62 1006.39 1007.75 1009.13 1009.53 1010.75 1011.84
1014.29 1013.77 1011.92 1010.14 1009.54 1009.69 1009.71 1010.03 1010.27 1009.60 1008.41 1008.00 1007.24 1005.46 1004.33 1003.56 1002.60 1001.52 999.96 998.22 995.71 994.47 994.26 994.38 994.32 994.89 995.34 996.13 997.24 998.62 999.49 1000.27 1001.16 1002.13 1002.64 1004.28 1005.40 1006.20 1007.17 1008.23 1009.57 1010.35 1011.59 1011.83
1014.23 1013.57 1012.00 1009.59 1009.48 1008.84 1009.02 1009.20 1009.80 1009.27 1008.81 1008.00 1007.18 1006.04 1004.62 1003.52 1002.51 1001.43 1000.42 998.76 995.98 994.92 994.19 994.40 994.78 995.17 995.93 996.90 997.60 998.52 999.27 1000.70 1001.76 1002.79 1003.84 1005.14 1006.23 1007.23 1008.24 1009.67 1010.55 1010.92 1011.62 1012.59
1014.26 1013.61 1012.89 1011.85 1010.64 1009.60 1009.05 1008.94 1009.24 1008.92 1008.71 1008.07 1007.43 1006.12 1004.60 1004.16 1003.64 1002.03 1001.42 999.84 997.47 995.90 995.18 994.97 995.20 995.91 996.61 997.19 998.08 998.90 999.58 1000.65 1002.19 1003.37 1004.09 1005.48 1006.80 1007.90 1009.11 1010.62 1011.59 1011.74 1012.26 1012.68
1014.03 1013.24 1012.50 1011.34 1010.33 1009.62 1009.19 1009.04 1008.73 1008.48 1008.78 1008.40 1007.31 1006.37 1005.53 1004.84 1004.80 1003.88 1002.74 1000.96 999.28 997.91 997.12 996.26 996.30 996.42 997.27 998.04 998.34 998.98 999.51 1000.88 1002.12 1003.44 1004.83 1006.30 1007.44 1008.76 1009.78 1010.98 1012.18 1013.10 1013.66 1013.46
1014.05 1013.07 1012.31 1010.66 1009.64 1009.23 1009.06 1008.70 1008.52 1008.15 1008.45 1008.29 1007.45 1006.53 1005.92 1005.04 1004.59 1004.29 1003.68 1002.41 1001.18 1000.08 999.07 998.47 998.16 997.53 998.08 998.42 998.96 999.44 1000.37 1001.66 1002.60 1004.52 1005.98 1007.11 1008.16 1009.28 1010.70 1012.12 1012.48 1015.12 1013.82 1014.23
1014.30 1013.34 1012.28 1010.35 1009.43 1008.86 1008.81 1008.53 1008.41 1008.16 1008.33 1008.53 1007.54 1007.30 1006.06 1005.33 1004.98 1005.26 1004.62 1003.75 1003.03 1002.14 1001.05 1000.30 999.77 999.47 999.31 999.68 1000.38 1000.28 1001.39 1002.66 1003.90 1005.29 1006.78 1007.93 1008.80 1009.90 1011.64 1012.54 1012.76 1014.56 1015.23 1015.27
1013.98 1013.36 1012.78 1011.09 1009.89 1008.55 1008.67 1008.39 1008.35 1008.12 1008.04 1008.09 1007.79 1007.36 1006.70 1006.06 1005.45 1005.96 1005.72 1005.16 1004.30 1003.75 1002.98 1002.06 1001.48 1001.02 1001.00 1001.03 1001.58 1002.02 1003.12 1003.83 1005.10 1006.36 1007.72 1008.97 1009.64 1010.62 1012.20 1013.57 1013.53 1014.61 1015.02 1015.92
1013.94 1013.54 1012.78 1011.76 1010.53 1009.28 1008.83 1008.24 1008.23 1008.13 1007.70 1007.72 1007.67 1007.32 1007.02 1006.34 1005.46 1005.99 1006.40 1006.17 1005.52 1004.88 1004.34 1003.65 1002.65 1002.13 1002.26 1002.38 1002.62 1003.18 1004.44 1005.39 1006.18 1007.43 1008.42 1009.47 1010.62 1011.78 1013.18 1013.66 1014.12 1015.69 1015.72 1017.33
1013.60 1013.54 1013.35 1011.90 1010.87 1009.40 1008.89 1008.34 1008.04 1007.94 1007.17 1007.56 1007.78 1007.64 1007.37 1007.14 1006.68 1007.09 1007.30 1007.05 1006.34 1005.68 1005.29 1004.74 1004.30 1003.81 1003.47 1003.74 1003.81 1004.64 1005.76 1006.74 1007.59 1008.80 1009.33 1010.19 1011.51 1012.79 1013.93 1014.59 1014.88 1016.34 1016.83 1017.23
1012.93 1012.64 1012.34 1011.71 1010.98 1009.24 1008.94 1008.44 1007.81 1007.48 1007.83 1007.77 1007.85 1007.93 1007.87 1008.22 1008.83 1008.52 1008.14 1007.88 1007.50 1006.80 1006.10 1005.76 1005.45 1005.15 1004.86 1004.78 1004.92 1005.59 1006.44 1007.57 1008.84 1009.85 1010.36 1011.42 1012.81 1013.17 1014.39 1015.70 1015.89 1017.30 1017.70 1018.26
1013.09 1012.52 1011.67 1011.36 1010.54 1009.42 1009.04 1008.44 1008.33 1008.27 1007.90 1007.85 1007.93 1008.10 1008.22 1008.48 1008.84 1008.80 1008.50 1008.26 1008.03 1007.82 1007.31 1006.94 1006.55 1006.40 1006.16 1006.16 1006.02 1006.82 1007.50 1008.83 1010.04 1011.02 1011.20 1012.53 1013.38 1014.30 1015.10 1016.45 1017.34 1018.17 1018.24 1019.20
1013.09 1012.39 1011.90 1011.32 1009.52 1009.13 1009.00 1008.63 1008.42 1008.24 1008.10 1007.94 1008.20 1008.28 1008.33 1008.48 1008.82 1009.18 1009.05 1008.89 1008.50 1008.02 1008.32 1008.01 1007.78 1007.36 1007.22 1007.09 1007.10 1007.47 1008.60 1009.45 1010.90 1011.84 1012.48 1013.66 1014.50 1015.76 1016.10 1016.91 1017.85 1018.54 1019.06 1019.79
1012.58 1012.29 1011.64 1010.98 1009.16 1008.96 1008.70 1008.40 1008.35 1007.98 1007.89 1007.98 1008.32 1008.53 1008.49 1008.62 1008.96 1009.23 1009.45 1009.40 1009.22 1008.99 1008.74 1008.71 1008.50 1008.48 1008.36 1008.28 1008.52 1008.70 1009.25 1009.94 1011.45 1012.90 1014.10 1014.10 1015.21 1016.03 1016.81 1017.86 1018.42 1019.09 1019.69 1020.02
1012.68 1012.16 1010.88 1010.15 1009.34 1008.76 1007.87 1007.88 1007.78 1007.73 1007.85 1008.01 1008.26 1008.57 1008.61 1008.69 1009.10 1009.35 1009.50 1009.73 1009.75 1009.67 1009.68 1009.71 1009.44 1009.40 1009.45 1009.56 1009.51 1010.34 1010.35 1010.70 1012.13 1013.41 1014.39 1015.10 1016.01 1016.60 1017.56 1018.37 1019.14 1019.50 1019.96 1020.22
1011.45 1010.82 1010.34 1009.05 1008.87 1008.82 1008.29 1007.86 1007.84 1007.77 1007.68 1007.80 1008.15 1008.43 1008.70 1008.94 1009.22 1009.54 1009.70 1009.87 1010.10 1010.14 1010.15 1010.22 1010.20 1010.17 1010.33 1010.68 1010.79 1011.27 1011.40 1011.63 1012.48 1013.80 1015.09 1015.73 1016.51 1017.46 1018.03 1018.90 1019.80 1020.82 1021.73 1022.48
Wind_Speed
1 6 11 12 9 13 14 16 21 25 24 22 25 23 30 23 23 24 24 20 19 19 20 17 12 11 15 16 19 20 20 19 15 14 14 13 12 10 8 7 9 9 8 9
5 11 6 9 8 13 15 18 21 17 12 18 26 28 30 27 25 25 26 23 22 20 19 20 14 10 17 19 20 21 20 20 17 13 11 11 11 9 8 8 9 10 10 10
10 12 9 7 15 12 12 12 15 23 24 20 26 24 18 23 18 16 20 23 22 22 21 21 18 13 16 20 21 20 20 20 18 17 12 9 10 7 8 9 9 9 11 10
6 2 7 10 11 6 13 5 18 24 20 12 15 16 21 15 13 11 16 19 20 22 23 22 19 14 15 20 20 20 20 20 18 19 16 19 12 12 9 9 8 8 10 10
6 12 9 9 5 3 10 17 22 24 20 15 11 8 9 13 12 19 16 18 20 21 21 24 22 16 16 16 20 19 18 18 19 18 16 15 12 10 10 9 12 10 10 11
14 8 5 4 8 13 18 16 22 3 1 5 6 5 11 6 11 22 25 18 19 19 22 24 20 15 15 15 18 20 19 18 18 18 16 14 16 14 12 12 11 9 9 9
13 4 3 2 15 7 11 13 6 3 3 7 4 5 13 16 15 23 22 19 14 16 19 20 18 14 14 15 18 19 22 21 18 17 19 17 16 16 15 13 12 13 10 10
8 5 3 3 8 10 15 5 2 8 10 18 14 6 6 12 16 21 18 14 6 14 17 16 18 16 17 17 19 22 24 18 18 18 16 15 15 10 9 10 10 10 9 10
7 7 6 13 14 5 5 11 12 7 7 7 3 5 11 11 22 25 23 19 11 6 15 17 18 17 17 17 20 20 19 18 18 16 15 16 15 16 12 15 13 11 11 10
2 9 6 13 6 4 7 11 4 2 8 9 4 5 5 21 27 26 23 21 17 11 7 13 16 17 17 17 16 18 18 18 17 18 15 13 13 14 14 11 12 16 14 14
3 4 10 12 4 13 5 5 4 4 4 6 6 5 5 16 18 19 20 20 16 11 9 10 14 15 16 17 17 13 13 16 16 17 15 14 11 12 13 11 11 12 15 15
2 4 8 16 13 1 4 6 9 4 7 4 4 5 8 15 15 18 20 21 19 11 7 8 10 13 17 16 15 14 16 17 17 17 15 11 11 12 11 12 13 14 15 15
1 2 9 8 5 9 18 12 10 13 5 4 6 7 11 23 24 21 21 21 17 8 3 9 11 12 14 12 16 17 16 16 16 15 16 13 10 12 13 13 11 16 16 16
4 4 7 7 14 18 13 18 13 11 3 11 5 19 22 22 22 24 21 21 19 14 6 5 12 14 14 12 15 17 17 17 15 14 14 14 15 16 16 14 11 14 13 16
3 8 13 16 18 18 14 10 14 13 7 5 18 18 17 18 16 19 16 20 21 20 17 7 5 12 16 17 14 15 16 16 16 16 16 15 15 14 13 16 14 11 11 14
2 7 11 18 10 9 2 11 16 9 5 10 18 17 17 15 11 16 17 17 18 17 17 16 12 7 11 13 13 15 15 16 17 17 16 17 18 18 16 14 17 10 16 16
6 4 7 7 14 12 6 10 15 11 3 12 13 17 16 18 13 16 17 18 15 15 14 12 11 9 9 10 11 17 16 16 17 18 17 17 18 19 17 17 20 14 11 15
6 6 2 8 11 2 3 8 11 11 2 11 15 18 18 17 11 11 16 17 15 13 12 11 7 8 10 11 12 14 14 16 17 18 18 16 18 20 17 14 19 17 13 13
13 4 5 4 6 10 3 12 9 7 3 16 17 20 16 17 9 2 17 16 15 11 10 7 9 8 9 10 13 16 15 15 17 17 19 17 17 16 15 17 18 14 16 12
5 9 4 5 5 4 2 12 13 5 3 17 17 18 14 14 12 8 18 15 15 13 11 11 8 9 11 9 12 14 14 15 16 16 18 19 18 16 17 17 17 12 12 14
6 4 8 6 6 4 4 12 12 5 9 16 16 16 10 5 2 10 11 9 10 11 12 10 11 9 8 9 14 15 15 14 15 16 18 18 16 19 17 14 14 13 13 14
5 4 3 2 4 5 2 5 7 8 11 12 13 13 11 9 6 9 8 11 10 9 10 11 8 9 8 6 14 16 18 16 15 16 19 18 18 13 15 15 14 15 14 15
4 5 4 5 4 6 9 7 7 8 10 11 10 11 10 10 8 6 7 9 10 10 7 7 7 8 8 8 7 19 19 21 16 17 18 17 16 14 14 16 15 12 12 11
4 4 6 7 5 6 8 10 10 10 9 10 7 8 9 8 8 5 5 6 6 7 8 7 8 9 9 10 9 14 19 21 20 18 16 16 15 15 14 10 11 10 10 10
9 10 9 13 18 16 14 15 9 9 8 9 4 5 7 7 5 5 5 5 5 5 6 7 7 9 11 9 12 10 16 21 20 17 14 14 12 14 14 11 9 9 10 10
14 11 6 6 8 7 11 12 5 8 9 8 6 4 5 6 4 2 4 4 4 5 6 8 9 11 12 10 12 10 14 17 19 17 12 11 11 11 11 11 12 22 16 18
Wind_Direction
8 283 300 313 311 290 294 291 291 291 295 290 274 281 284 282 271 263 258 250 241 244 253 265 259 237 214 197 191 185 178 173 168 171 174 183 186 184 178 180 179 183 192 192
279 293 347 314 296 295 287 287 286 290 292 299 289 285 288 284 275 268 263 254 244 233 235 255 255 226 209 200 192 183 183 175 176 176 178 174 172 184 180 178 182 184 188 191
291 292 320 326 307 298 289 272 285 294 307 287 286 283 288 300 303 279 266 255 251 242 234 238 243 224 205 201 193 186 182 180 179 177 159 142 147 140 172 178 181 186 185 188
307 295 310 315 293 264 305 311 299 296 308 306 333 297 300 308 318 302 271 262 254 236 233 239 238 228 202 201 193 186 182 180 180 174 173 155 162 175 180 174 179 176 171 166
304 300 309 296 261 259 279 311 291 292 290 301 295 259 272 311 328 337 313 271 263 238 219 228 236 230 217 194 186 184 181 182 176 174 170 158 158 164 161 169 158 161 154 153
289 294 265 266 297 288 295 301 302 15 291 254 234 237 292 303 329 330 315 301 267 233 222 231 230 219 228 197 181 178 176 178 176 167 153 158 155 152 153 156 160 161 149 149
318 298 270 273 315 322 318 354 310 306 245 296 133 239 275 306 318 319 317 312 278 232 219 223 225 197 214 204 179 169 172 169 169 164 160 156 147 145 149 157 166 155 156 151
342 329 341 35 336 304 323 339 303 308 311 304 312 242 264 326 316 329 326 328 321 243 226 214 220 198 202 201 190 178 167 161 156 163 137 140 137 142 144 162 154 150 151 149
323 276 296 309 312 279 16 326 325 267 250 275 270 276 283 308 334 344 337 335 340 303 238 213 206 198 195 192 197 189 176 170 147 143 139 143 151 144 153 159 150 141 131 131
302 289 321 329 312 151 301 318 290 256 306 308 328 299 298 331 331 333 338 328 322 320 296 220 199 197 189 184 190 182 176 165 151 149 160 153 160 152 142 148 148 136 128 128
281 234 306 309 334 333 355 321 301 258 255 284 315 322 280 320 326 330 328 322 314 298 276 234 206 186 183 174 171 163 159 146 147 150 153 148 151 146 138 139 142 129 128 134
239 289 292 308 319 108 339 317 310 285 317 292 259 280 348 336 341 344 335 329 315 290 232 201 183 175 179 160 156 153 152 158 157 158 149 145 130 132 117 121 125 127 131 113
171 246 307 335 186 310 332 325 311 323 301 290 320 307 310 347 352 353 346 339 344 339 242 162 161 159 162 139 156 164 155 160 159 161 153 151 126 119 114 120 122 122 121 120
212 257 259 282 281 299 307 315 326 336 297 313 337 324 346 346 350 345 345 342 359 18 355 189 149 149 146 142 153 162 150 146 131 128 127 125 123 120 116 113 116 127 128 125
235 277 293 282 285 293 304 334 335 325 3 329 330 331 333 334 348 336 337 350 6 14 11 358 124 140 143 152 160 152 134 127 122 112 111 111 111 115 116 115 112 105 116 105
235 280 307 305 298 325 221 343 345 351 349 335 335 334 335 337 329 357 357 352 7 2 10 15 6 109 128 136 129 123 121 118 118 115 115 113 108 103 105 109 104 103 95 92
282 275 319 288 318 311 211 346 337 322 43 343 343 321 325 350 334 8 356 359 6 3 1 16 21 40 57 94 124 116 115 117 115 114 114 116 115 110 111 116 102 100 105 96
267 290 284 291 327 267 16 332 329 318 304 357 342 337 337 343 333 37 9 360 2 12 4 3 22 68 80 92 96 95 105 111 114 113 114 115 116 116 117 122 115 102 98 95
218 279 292 288 311 288 332 344 346 332 284 13 351 343 344 342 345 118 9 359 356 6 8 16 19 39 86 96 103 101 105 108 110 115 114 113 111 110 125 117 103 116 107 105
178 244 255 296 300 284 40 339 340 285 243 5 356 348 345 358 16 335 352 349 355 4 14 10 26 61 63 88 102 107 113 118 113 122 120 111 108 111 107 106 110 101 108 105
296 272 254 277 264 273 320 332 316 324 337 341 347 349 344 18 284 300 333 356 4 354 10 15 25 32 50 93 99 96 103 103 113 118 111 109 116 109 103 106 103 115 109 106
286 303 278 252 258 281 38 335 358 318 307 328 337 351 343 353 356 346 350 352 9 12 23 13 34 33 31 94 108 105 98 102 107 112 110 106 107 110 113 115 113 113 107 105
257 232 298 265 273 319 297 272 294 283 287 313 327 341 343 344 359 17 348 359 0 11 20 36 45 50 40 38 119 116 117 109 101 102 100 110 104 113 108 115 115 110 111 118
254 248 250 296 250 282 293 286 283 279 270 298 333 326 336 349 350 14 35 1 2 11 21 35 57 61 59 74 81 109 120 114 113 109 113 110 115 112 110 113 113 118 121 120
269 301 265 272 286 287 275 262 269 252 272 285 326 342 348 350 4 2 30 29 5 34 40 59 65 71 67 77 95 111 117 117 113 113 114 113 109 109 109 98 104 106 92 96
240 238 214 247 257 278 285 296 280 245 268 284 313 351 360 350 16 25 44 36 9 45 58 79 78 76 72 66 86 101 107 113 118 120 119 112 108 110 111 106 88 58 78 82